UAL429 KSAN-KLAX

Flight info

Callsign UAL429
Flight time 0h 29m
Altitude 10000
Route KSAN CWARD2 SLI
Aircraft B738/M-G/C

Departure

Time 2026-05-06 01:57
Airport San Diego International Airport (KSAN)

Arrival

Time 2026-05-06 02:26
Airport Los Angeles International Airport (KLAX)
Time Latitude Longitude Altitude Speed Heading
2026-05-06 01:45 32.73338 -117.20183 21 ft 0 kts 84°
2026-05-06 01:48 32.73335 -117.20207 21 ft 3 kts 84°
2026-05-06 01:49 32.73333 -117.20235 21 ft 3 kts 84°
2026-05-06 01:49 32.73330 -117.20267 21 ft 3 kts 84°
2026-05-06 01:49 32.73330 -117.20274 21 ft 0 kts 75°
2026-05-06 01:49 32.73329 -117.20276 21 ft 0 kts 62°
2026-05-06 01:50 32.73328 -117.20277 21 ft 0 kts 61°
2026-05-06 01:51 32.73332 -117.20274 21 ft 2 kts 38°
2026-05-06 01:52 32.73363 -117.20276 21 ft 7 kts 351°
2026-05-06 01:52 32.73428 -117.20270 21 ft 11 kts 11°
2026-05-06 01:52 32.73527 -117.20225 21 ft 17 kts 45°
2026-05-06 01:52 32.73526 -117.20077 21 ft 21 kts 103°
2026-05-06 01:53 32.73478 -117.19891 21 ft 25 kts 105°
2026-05-06 01:53 32.73421 -117.19665 22 ft 31 kts 101°
2026-05-06 01:53 32.73359 -117.19395 24 ft 37 kts 107°
2026-05-06 01:53 32.73275 -117.19092 23 ft 39 kts 106°
2026-05-06 01:54 32.73210 -117.18771 22 ft 41 kts 104°
2026-05-06 01:54 32.73140 -117.18509 21 ft 30 kts 108°
2026-05-06 01:54 32.73087 -117.18284 21 ft 27 kts 105°
2026-05-06 01:54 32.73034 -117.18065 21 ft 27 kts 107°
2026-05-06 01:55 32.72986 -117.17883 23 ft 11 kts 108°
2026-05-06 01:55 32.72960 -117.17788 24 ft 12 kts 108°
2026-05-06 01:55 32.72946 -117.17687 26 ft 11 kts 84°
2026-05-06 01:55 32.72949 -117.17671 26 ft 0 kts 74°
2026-05-06 01:56 32.72953 -117.17657 26 ft 6 kts 74°
2026-05-06 01:56 32.72987 -117.17585 27 ft 12 kts 33°
2026-05-06 01:56 32.73041 -117.17664 27 ft 16 kts 283°
2026-05-06 01:56 32.73044 -117.17683 27 ft 0 kts 283°
2026-05-06 01:57 32.73053 -117.17726 26 ft 16 kts 283°
2026-05-06 01:57 32.73175 -117.18217 21 ft 105 kts 287°
2026-05-06 01:57 32.73430 -117.19348 80 ft 168 kts 285°
2026-05-06 01:57 32.73814 -117.20705 764 ft 185 kts 289°
2026-05-06 01:58 32.74260 -117.22107 1800 ft 184 kts 298°
2026-05-06 01:58 32.75040 -117.23296 2530 ft 187 kts 310°
2026-05-06 01:58 32.75809 -117.24564 3163 ft 195 kts 304°
2026-05-06 01:58 32.76614 -117.25921 3644 ft 212 kts 305°
2026-05-06 01:59 32.77477 -117.27419 4160 ft 228 kts 304°
2026-05-06 01:59 32.78371 -117.29015 4849 ft 235 kts 304°
2026-05-06 01:59 32.79272 -117.30633 5614 ft 238 kts 304°
2026-05-06 01:59 32.80225 -117.32256 6328 ft 242 kts 308°
2026-05-06 02:00 32.81251 -117.33828 7063 ft 245 kts 308°
2026-05-06 02:00 32.82290 -117.35437 7743 ft 252 kts 308°
2026-05-06 02:00 32.83393 -117.37149 8247 ft 266 kts 308°
2026-05-06 02:00 32.84533 -117.38914 8909 ft 274 kts 309°
2026-05-06 02:01 32.85684 -117.40700 9640 ft 277 kts 309°
2026-05-06 02:01 32.86876 -117.42549 9938 ft 287 kts 309°
2026-05-06 02:01 32.88069 -117.44402 9952 ft 280 kts 309°
2026-05-06 02:01 32.89252 -117.46242 9957 ft 280 kts 309°
2026-05-06 02:02 32.90483 -117.48152 9999 ft 301 kts 309°
2026-05-06 02:02 32.91811 -117.50214 9959 ft 328 kts 309°
2026-05-06 02:02 32.93221 -117.52407 9949 ft 339 kts 309°
2026-05-06 02:02 32.94656 -117.54644 9968 ft 336 kts 308°
2026-05-06 02:03 32.96078 -117.56860 9947 ft 335 kts 309°
2026-05-06 02:03 32.97478 -117.59042 9945 ft 334 kts 309°
2026-05-06 02:03 32.98892 -117.61247 9945 ft 336 kts 309°
2026-05-06 02:03 33.00309 -117.63457 9945 ft 336 kts 309°
2026-05-06 02:04 33.01736 -117.65688 9945 ft 336 kts 308°
2026-05-06 02:04 33.03145 -117.67891 9942 ft 336 kts 308°
2026-05-06 02:04 33.04561 -117.70106 9939 ft 336 kts 308°
2026-05-06 02:04 33.05998 -117.72326 9929 ft 336 kts 311°
2026-05-06 02:05 33.07640 -117.74246 9934 ft 335 kts 321°
2026-05-06 02:05 33.09447 -117.76032 9937 ft 336 kts 321°
2026-05-06 02:05 33.11217 -117.77828 9927 ft 334 kts 320°
2026-05-06 02:05 33.12988 -117.79650 9933 ft 335 kts 320°
2026-05-06 02:06 33.14744 -117.81441 9935 ft 335 kts 320°
2026-05-06 02:06 33.16539 -117.83266 9925 ft 334 kts 320°
2026-05-06 02:06 33.18315 -117.85046 9929 ft 334 kts 324°
2026-05-06 02:06 33.20338 -117.86394 9931 ft 333 kts 341°
2026-05-06 02:07 33.22581 -117.87021 9931 ft 334 kts 350°
2026-05-06 02:07 33.24856 -117.87531 9928 ft 333 kts 348°
2026-05-06 02:07 33.27115 -117.88100 9929 ft 332 kts 348°
2026-05-06 02:07 33.29390 -117.88675 9921 ft 333 kts 348°
2026-05-06 02:08 33.31657 -117.89239 9927 ft 334 kts 348°
2026-05-06 02:08 33.33937 -117.89806 9925 ft 333 kts 348°
2026-05-06 02:08 33.36223 -117.90377 9925 ft 332 kts 348°
2026-05-06 02:08 33.38509 -117.90960 9923 ft 338 kts 347°
2026-05-06 02:09 33.40760 -117.91692 9931 ft 328 kts 343°
2026-05-06 02:09 33.42863 -117.92504 9929 ft 310 kts 343°
2026-05-06 02:09 33.44857 -117.93250 9924 ft 292 kts 343°
2026-05-06 02:09 33.46748 -117.93937 9928 ft 276 kts 344°
2026-05-06 02:10 33.48575 -117.94604 9932 ft 275 kts 343°
2026-05-06 02:10 33.50437 -117.95287 9934 ft 277 kts 344°
2026-05-06 02:10 33.52286 -117.95962 9934 ft 278 kts 344°
2026-05-06 02:10 33.54127 -117.96632 9934 ft 278 kts 343°
2026-05-06 02:11 33.55983 -117.97308 9935 ft 278 kts 344°
2026-05-06 02:11 33.57827 -117.97981 9929 ft 271 kts 344°
2026-05-06 02:11 33.59591 -117.98624 9932 ft 264 kts 344°
2026-05-06 02:11 33.61371 -117.99272 9931 ft 267 kts 344°
2026-05-06 02:12 33.63135 -117.99912 9930 ft 266 kts 345°
2026-05-06 02:12 33.64936 -118.00497 9931 ft 265 kts 346°
2026-05-06 02:12 33.66724 -118.01061 9932 ft 266 kts 346°
2026-05-06 02:12 33.68515 -118.01632 9932 ft 265 kts 346°
2026-05-06 02:13 33.70290 -118.02200 9932 ft 265 kts 346°
2026-05-06 02:13 33.72099 -118.02781 9932 ft 267 kts 346°
2026-05-06 02:13 33.73883 -118.03360 9932 ft 267 kts 346°
2026-05-06 02:13 33.75667 -118.03942 9932 ft 267 kts 346°
2026-05-06 02:14 33.77464 -118.04527 9930 ft 265 kts 346°
2026-05-06 02:14 33.79214 -118.05095 9812 ft 255 kts 346°
2026-05-06 02:14 33.80924 -118.05650 9400 ft 252 kts 346°
2026-05-06 02:14 33.82607 -118.06197 8987 ft 248 kts 346°
2026-05-06 02:15 33.84282 -118.06634 8568 ft 244 kts 358°
2026-05-06 02:15 33.85954 -118.06417 8160 ft 240 kts 12°
2026-05-06 02:15 33.87563 -118.05999 7746 ft 237 kts 11°
2026-05-06 02:15 33.89184 -118.05596 7359 ft 234 kts 11°
2026-05-06 02:16 33.90665 -118.04911 6999 ft 231 kts 36°
2026-05-06 02:16 33.91662 -118.03437 6657 ft 230 kts 68°
2026-05-06 02:16 33.91833 -118.01562 6320 ft 230 kts 101°
2026-05-06 02:16 33.91172 -117.99821 6018 ft 225 kts 122°
2026-05-06 02:17 33.90330 -117.98296 5689 ft 217 kts 121°
2026-05-06 02:17 33.89526 -117.96788 5331 ft 213 kts 121°
2026-05-06 02:17 33.88732 -117.95319 4980 ft 209 kts 127°
2026-05-06 02:17 33.87591 -117.94255 4601 ft 206 kts 162°
2026-05-06 02:18 33.86221 -117.94200 4309 ft 197 kts 200°
2026-05-06 02:18 33.85162 -117.95146 4080 ft 191 kts 240°
2026-05-06 02:18 33.84864 -117.96669 3855 ft 189 kts 279°
2026-05-06 02:18 33.85440 -117.98027 3629 ft 187 kts 317°
2026-05-06 02:19 33.86459 -117.99002 3418 ft 187 kts 321°
2026-05-06 02:19 33.87487 -117.99962 3171 ft 187 kts 321°
2026-05-06 02:19 33.88497 -118.00905 3125 ft 184 kts 321°
2026-05-06 02:19 33.89522 -118.01876 3118 ft 186 kts 315°
2026-05-06 02:20 33.90677 -118.04610 3128 ft 185 kts 291°
2026-05-06 02:20 33.91151 -118.06039 3128 ft 186 kts 291°
2026-05-06 02:20 33.91684 -118.07468 3127 ft 186 kts 294°
2026-05-06 02:21 33.92234 -118.08879 3127 ft 187 kts 294°
2026-05-06 02:21 33.92789 -118.10301 3127 ft 187 kts 294°
2026-05-06 02:21 33.93341 -118.11717 3127 ft 187 kts 294°
2026-05-06 02:21 33.93899 -118.13144 3130 ft 186 kts 294°
2026-05-06 02:22 33.94454 -118.14554 3127 ft 185 kts 294°
2026-05-06 02:22 33.95009 -118.15962 3124 ft 186 kts 295°
2026-05-06 02:22 33.95517 -118.17378 3113 ft 186 kts 284°
2026-05-06 02:22 33.95572 -118.18911 3117 ft 186 kts 266°
2026-05-06 02:23 33.95508 -118.20467 3033 ft 188 kts 266°
2026-05-06 02:23 33.95369 -118.22041 2764 ft 187 kts 264°
2026-05-06 02:23 33.95220 -118.23593 2507 ft 184 kts 263°
2026-05-06 02:23 33.95067 -118.25107 2262 ft 182 kts 263°
2026-05-06 02:24 33.94917 -118.26611 2019 ft 180 kts 262°
2026-05-06 02:24 33.94769 -118.28065 1796 ft 170 kts 263°
2026-05-06 02:24 33.94632 -118.29433 1573 ft 163 kts 263°
2026-05-06 02:24 33.94501 -118.30732 1351 ft 146 kts 263°
2026-05-06 02:25 33.94377 -118.31943 1143 ft 144 kts 263°
2026-05-06 02:25 33.94256 -118.33144 959 ft 145 kts 263°
2026-05-06 02:25 33.94136 -118.34332 783 ft 144 kts 263°
2026-05-06 02:25 33.94014 -118.35541 576 ft 147 kts 263°
2026-05-06 02:26 33.93890 -118.36747 423 ft 144 kts 263°
2026-05-06 02:26 33.93766 -118.37949 219 ft 146 kts 262°
2026-05-06 02:26 33.93651 -118.39136 108 ft 128 kts 264°
2026-05-06 02:26 33.93615 -118.39853 115 ft 36 kts 284°
2026-05-06 02:27 33.93663 -118.40002 118 ft 16 kts 280°
2026-05-06 02:27 33.93652 -118.40176 121 ft 23 kts 264°
2026-05-06 02:27 33.93643 -118.40292 121 ft 5 kts 277°
2026-05-06 02:27 33.93648 -118.40319 121 ft 0 kts 287°
2026-05-06 02:28 33.93649 -118.40321 121 ft 0 kts 287°
2026-05-06 02:28 33.93654 -118.40340 121 ft 3 kts 287°
2026-05-06 02:28 33.93655 -118.40344 121 ft 0 kts 287°
2026-05-06 02:28 33.93661 -118.40364 121 ft 7 kts 292°
2026-05-06 02:29 33.93740 -118.40431 123 ft 20 kts 351°
2026-05-06 02:29 33.93838 -118.40377 122 ft 16 kts 71°
2026-05-06 02:29 33.93856 -118.40251 121 ft 14 kts 85°
2026-05-06 02:29 33.93865 -118.40133 120 ft 14 kts 85°
2026-05-06 02:30 33.93915 -118.40063 119 ft 11 kts 10°
2026-05-06 02:30 33.93986 -118.40066 119 ft 9 kts 351°
2026-05-06 02:30 33.94049 -118.40075 118 ft 7 kts 14°
2026-05-06 02:30 33.94090 -118.40063 118 ft 5 kts 332°
2026-05-06 02:31 33.94119 -118.40080 118 ft 4 kts 343°
2026-05-06 02:31 33.94148 -118.40086 118 ft 5 kts 13°
2026-05-06 02:31 33.94168 -118.40063 118 ft 4 kts
2026-05-06 02:31 33.94194 -118.40046 118 ft 3 kts 47°
2026-05-06 02:32 33.94203 -118.40029 118 ft 0 kts 62°